[[{"header":{"parameterUnit":"m.s-1","parameterCategory":1,"la1":30.2991,"la2":30.254,"lo1":-89.0895,"lo2":-89.0444,"dy":0.0017,"dx":0.0017,"nx":28,"ny":28,"refTime":"2024-09-28T21:00:00:Z","depth":0,"parameterNumber":2,"parameterNumberName":"U-component_of_WINDS"},"data":[0,0,0,0,0,0,0,0,0,0,0,0,0,0,0,0,0,0,0,0,0,0,0,0,0,0,0,0,0,0,0,0,0,0,0,0,0,0,0,0,0,0,0,0,0,0,0,0,0,0,0,0,0,0,0,0,0,0,2.8371,2.8372,0,2.85,2.8502,2.8503,2.8495,2.8493,2.8491,2.8489,2.8624,2.863,2.8635,0,0,0,0,0,0,0,0,0,0,0,0,0,2.8117,2.8121,2.837,2.8372,2.8374,2.85,2.8502,2.8504,2.8495,2.8493,2.849,2.8488,2.8623,2.8629,2.8636,0,0,0,0,0,0,0,0,0,0,0,0,0,2.8235,2.8123,2.837,2.8384,2.8387,2.85,2.8502,2.8504,2.8495,2.8492,2.849,2.8487,2.8621,2.8628,2.8636,2.8744,0,0,2.8661,2.8665,0,0,0,0,0,0,0,0,2.8228,2.8244,2.8381,2.8384,2.8387,2.8478,2.8462,2.8585,2.8496,2.8454,2.8489,2.8485,2.8578,2.859,2.862,2.8751,2.8756,2.8662,2.8667,2.867,2.8673,0,0,0,0,0,0,0,2.822,2.8239,2.8422,2.8383,2.8386,2.8385,2.8399,2.8485,2.8531,2.8458,2.8457,2.8473,2.8579,2.8613,2.8624,2.8758,2.8662,2.8669,2.8674,2.8677,2.8982,2.8985,0,0,0,0,0,0,2.8208,2.8232,2.8418,2.8426,2.8299,2.8392,2.8407,2.8452,2.853,2.8539,2.8475,2.8472,2.86,2.8614,2.8628,2.8758,2.867,2.8678,2.8682,2.8979,2.8983,2.8986,0,0,0,0,0,0,2.8203,2.8225,2.8413,2.8329,2.8353,2.8399,2.845,2.8456,2.8489,2.8543,2.8551,2.85,2.8599,2.8617,2.8715,2.8763,2.8681,2.8689,2.8975,2.898,2.8985,2.9019,0,0,0,0,0,0,2.8196,2.8223,2.8264,2.833,2.8357,2.8496,2.8453,2.8461,2.8503,2.85,2.8569,2.8578,2.8598,2.8703,2.8723,2.8772,2.8695,2.8971,2.8977,2.8983,2.9014,2.9025,2.9034,0,0,0,0,0,2.8187,2.8269,2.8266,2.8289,2.8409,2.8499,2.8515,2.8535,2.8507,2.8548,2.8583,2.8576,2.8755,2.8713,2.8736,2.8788,2.8968,2.8976,2.8983,2.901,2.9023,2.9034,0,0,0,0,0,0,2.8209,2.8278,2.8275,2.8382,2.8434,2.8497,2.855,2.8549,2.8611,2.8606,2.8629,2.8645,2.8743,2.8776,2.8728,2.8896,2.8858,2.887,2.8871,2.8883,2.8893,2.8882,2.8702,0,0,0,0,0,2.8226,2.8293,2.835,2.8439,2.8465,2.8503,2.8543,2.8555,2.861,2.8633,2.8675,2.873,2.8799,2.8843,2.891,2.902,2.9034,2.9067,2.9077,2.9085,2.9094,2.9154,2.9169,2.901,2.901,2.901,0,0,2.8262,2.8309,2.8349,2.8444,2.8486,2.8555,2.8522,2.8597,2.8648,2.8645,2.8739,2.8772,2.8835,2.8939,2.8987,2.8969,2.9142,2.9094,2.91,2.9105,2.9163,2.9178,2.9191,2.9015,2.9015,2.9014,0,0,2.8363,2.8405,2.8482,2.8525,2.8589,2.8614,2.8633,2.8697,2.8718,2.8813,2.8811,2.8873,2.8991,2.9036,2.9074,2.9192,2.9187,2.9213,2.9264,2.9322,2.9334,2.9345,2.9385,2.94,2.9223,2.9223,2.9223,0,2.84,2.8503,2.8523,2.8597,2.8639,2.8639,2.8717,2.8758,2.8841,2.887,2.8849,2.8996,2.9039,2.9152,2.9181,2.9213,2.9234,2.9204,2.9331,2.9342,2.9353,2.9391,2.9406,2.9226,2.9225,2.9225,2.9225,0,2.8544,2.8616,2.8671,2.8749,2.8797,2.8873,2.8905,2.8952,2.8959,2.8986,2.9083,2.9134,2.921,2.9239,2.9247,2.9354,2.9341,2.9325,2.9287,2.937,2.9406,2.9421,2.9229,2.9228,2.9228,2.9227,0,0,2.8661,2.8749,2.8769,2.8804,2.8875,2.8931,2.9007,2.9081,2.9119,2.9177,2.9241,2.9341,2.9327,2.937,2.9384,2.9435,2.9522,2.9413,2.9415,2.943,2.9641,2.965,2.9667,2.9521,2.9524,2.9526,2.9635,0,2.8767,2.8901,2.8921,2.9039,2.9105,2.9106,2.9173,2.9224,2.9251,2.9312,2.9343,2.9413,2.939,2.9416,2.9466,2.9501,2.9565,2.9494,2.958,2.9583,2.9561,2.9687,2.9697,2.9798,2.965,2.9652,2.9654,0,2.8908,2.8967,2.9092,2.9153,2.9181,2.924,2.9308,2.9367,2.9425,2.9441,2.949,2.9497,2.9577,2.9537,2.9646,2.9597,2.9634,2.9657,2.9661,2.9668,2.9621,2.9695,2.983,2.9844,2.9677,2.9675,2.9674,0,2.8977,2.909,2.9178,2.9208,2.9282,2.9324,2.9356,2.9412,2.9454,2.9515,2.9542,2.9612,2.965,2.9704,2.973,2.9698,2.9837,2.98,2.9853,2.9852,2.988,2.9877,3.002,2.9908,2.9908,2.9907,2.9907,0,2.9092,2.9167,2.921,2.9264,2.9348,2.9372,2.9456,2.9488,2.9537,2.9597,2.9604,2.9661,2.9693,2.9755,2.9777,2.9863,2.9881,2.9896,2.99,2.9894,2.9892,2.9917,2.9909,2.9911,2.991,2.991,2.9909,0,2.9183,2.9215,2.9311,2.9373,2.939,2.945,2.9503,2.9556,2.9584,2.966,2.968,2.9724,2.9797,2.9829,2.992,2.9934,3.0032,3.0033,3.0012,3.0013,3.0063,3.0057,3.0225,3.0248,3.0122,3.0124,3.0125,0,2.9253,2.9311,2.9379,2.9419,2.9453,2.9518,2.9561,2.9588,2.9633,2.9703,2.9747,2.982,2.9879,2.9996,3.0037,3.0106,3.0107,3.0161,3.0117,3.0108,3.0105,3.01,3.0105,3.0168,3.017,3.0171,3.0171,0,2.9373,2.9385,2.9446,2.9514,2.9564,2.9619,2.9672,2.9705,2.974,2.979,2.9864,2.991,3.0002,3.0074,3.0146,3.018,3.0182,3.0185,3.0201,3.0193,3.0178,3.0185,3.0031,3.0181,3.018,3.0179,3.0179,3.0178,2.9454,2.9504,2.956,2.9628,2.967,2.972,2.9772,2.9806,2.9868,2.9944,2.9956,3.0035,3.0092,3.0188,3.0225,3.0288,3.0274,3.0297,3.0303,3.0307,3.0309,3.017,3.0301,3.0301,3.0301,3.0301,3.0301,0,2.9571,2.9607,2.967,2.9743,2.9797,2.9793,2.9852,2.9897,2.9966,3.0018,3.0076,3.0161,3.0231,3.0277,3.0348,3.0389,3.0391,3.0407,3.0403,3.041,3.0318,3.0296,3.0403,3.0403,3.0403,3.0403,3.0403,3.0403,2.9639,2.9724,2.9743,2.985,2.9885,2.9961,2.9995,3.0041,3.0082,3.0176,3.0234,3.0264,3.0314,3.0388,3.0452,3.0464,3.0489,3.0504,3.0515,3.0428,3.0417,3.0407,3.0386,3.051,3.051,3.0602,3.0603,3.0603]},{"header":{"parameterUnit":"m.s-1","parameterCategory":1,"la1":30.2991,"la2":30.254,"lo1":-89.0895,"lo2":-89.0444,"dy":0.0017,"dx":0.0017,"nx":28,"ny":28,"refTime":"2024-09-28T21:00:00:Z","depth":0,"parameterNumber":3,"parameterNumberName":"V-component_of_WINDS"},"data":[0,0,0,0,0,0,0,0,0,0,0,0,0,0,0,0,0,0,0,0,0,0,0,0,0,0,0,0,0,0,0,0,0,0,0,0,0,0,0,0,0,0,0,0,0,0,0,0,0,0,0,0,0,0,0,0,0,0,2.4689,2.4691,0,2.4863,2.4865,2.4867,2.4924,2.4923,2.4922,2.4922,2.5101,2.5106,2.5112,0,0,0,0,0,0,0,0,0,0,0,0,0,2.4406,2.4411,2.4689,2.4691,2.4693,2.4862,2.4865,2.4867,2.4924,2.4923,2.4922,2.4921,2.5099,2.5105,2.5112,0,0,0,0,0,0,0,0,0,0,0,0,0,2.4549,2.4413,2.4688,2.4742,2.4748,2.4862,2.4865,2.4868,2.4924,2.4923,2.4922,2.4921,2.5097,2.5105,2.5113,2.5187,0,0,2.5138,2.5142,0,0,0,0,0,0,0,0,2.4541,2.456,2.4732,2.4738,2.4746,2.487,2.4831,2.4975,2.4924,2.4857,2.4922,2.492,2.5025,2.5039,2.5074,2.5195,2.5203,2.5139,2.5144,2.5147,2.515,0,0,0,0,0,0,0,2.4531,2.4552,2.4758,2.4734,2.4743,2.4757,2.4776,2.4859,2.4946,2.4863,2.4868,2.4887,2.5029,2.5066,2.5079,2.5205,2.5139,2.5146,2.5151,2.5154,2.5395,2.5396,0,0,0,0,0,0,2.4512,2.4544,2.4752,2.4763,2.4638,2.4763,2.4785,2.4832,2.4945,2.4961,2.4888,2.4889,2.5053,2.5069,2.5086,2.5179,2.5147,2.5155,2.516,2.5393,2.5395,2.5397,0,0,0,0,0,0,2.4506,2.453,2.4745,2.4655,2.4683,2.4769,2.4822,2.4836,2.4873,2.4964,2.498,2.491,2.5053,2.5074,2.5161,2.5186,2.5159,2.5166,2.5392,2.5394,2.5396,2.5366,0,0,0,0,0,0,2.4497,2.4527,2.4556,2.4655,2.4688,2.4817,2.4823,2.484,2.4887,2.489,2.4989,2.5004,2.5053,2.5148,2.5169,2.5197,2.5173,2.539,2.5393,2.5395,2.5365,2.5367,2.5368,0,0,0,0,0,2.4487,2.4541,2.4557,2.4582,2.4725,2.4818,2.4837,2.4892,2.4889,2.4918,2.4977,2.5001,2.518,2.5157,2.5181,2.5211,2.5388,2.5392,2.5395,2.5364,2.5366,2.5368,0,0,0,0,0,0,2.4443,2.4555,2.4574,2.4662,2.473,2.4828,2.4867,2.4893,2.4964,2.4964,2.503,2.5052,2.5134,2.5181,2.5154,2.5288,2.5285,2.5293,2.5254,2.5257,2.5258,2.5245,2.5179,0,0,0,0,0,2.4444,2.451,2.4604,2.4672,2.4705,2.478,2.4823,2.4859,2.4933,2.4962,2.5027,2.5098,2.517,2.5216,2.5287,2.5372,2.5394,2.5405,2.5407,2.5407,2.5414,2.5462,2.5467,2.5407,2.5407,2.5407,0,0,2.4446,2.4515,2.4552,2.4665,2.4722,2.4789,2.4804,2.4874,2.4925,2.4973,2.5059,2.5109,2.5192,2.5278,2.5319,2.532,2.5435,2.5412,2.5412,2.5418,2.5466,2.5471,2.5476,2.541,2.5409,2.5409,0,0,2.4483,2.4542,2.4605,2.4662,2.4748,2.4798,2.4812,2.4907,2.4941,2.5028,2.5066,2.5127,2.525,2.5308,2.5353,2.5412,2.5437,2.5434,2.5442,2.5488,2.5493,2.5497,2.5518,2.5524,2.544,2.5439,2.5439,0,2.4474,2.4576,2.4634,2.4702,2.4751,2.4797,2.4861,2.4914,2.5019,2.5052,2.5051,2.5206,2.5266,2.5366,2.538,2.5415,2.5435,2.5422,2.5487,2.5492,2.5497,2.5518,2.5525,2.5438,2.5439,2.5439,2.5439,0,2.4561,2.4631,2.4672,2.4772,2.4825,2.4891,2.4958,2.5005,2.5037,2.5086,2.5174,2.5247,2.5334,2.5361,2.5393,2.5465,2.5463,2.5474,2.5473,2.5501,2.5521,2.553,2.5437,2.5437,2.5438,2.5438,0,0,2.4575,2.4706,2.472,2.4766,2.4865,2.492,2.4988,2.5073,2.5111,2.5183,2.5241,2.5344,2.5355,2.5406,2.5445,2.5486,2.5527,2.5492,2.5495,2.5496,2.5611,2.5601,2.561,2.5544,2.5546,2.5548,2.5604,0,2.4625,2.4748,2.4802,2.49,2.4966,2.5011,2.507,2.5137,2.5185,2.5248,2.5301,2.5373,2.5382,2.5413,2.5455,2.5513,2.5551,2.551,2.56,2.5602,2.5576,2.562,2.5611,2.566,2.5612,2.5613,2.5614,0,2.4699,2.477,2.4875,2.4965,2.4995,2.5047,2.5129,2.5188,2.5265,2.5297,2.5354,2.5391,2.5465,2.5458,2.556,2.5531,2.5571,2.5605,2.5608,2.5618,2.5609,2.5631,2.5678,2.5684,2.5628,2.5627,2.5626,0,2.4698,2.482,2.4898,2.4936,2.5044,2.5079,2.5126,2.5202,2.5249,2.5321,2.5352,2.5431,2.5474,2.5535,2.5593,2.5583,2.5689,2.5687,2.5717,2.5716,2.5737,2.5735,2.579,2.5764,2.5764,2.5763,2.5763,0,2.4747,2.4809,2.4899,2.4947,2.5018,2.508,2.5149,2.5199,2.5266,2.5324,2.5369,2.5423,2.5496,2.5559,2.5605,2.5682,2.5702,2.5729,2.5741,2.5725,2.5722,2.5752,2.575,2.5765,2.5765,2.5765,2.5764,0,2.4758,2.482,2.4909,2.5003,2.5029,2.5077,2.5158,2.5207,2.5257,2.533,2.5351,2.543,2.5507,2.5571,2.5672,2.5703,2.5783,2.5796,2.5756,2.5762,2.5788,2.5785,2.5865,2.5878,2.5843,2.5843,2.5843,0,2.4785,2.4834,2.4933,2.4976,2.5022,2.5089,2.5138,2.52,2.5249,2.534,2.5377,2.5458,2.5525,2.5646,2.5712,2.579,2.5805,2.5828,2.5817,2.58,2.5805,2.5801,2.5806,2.5829,2.5829,2.5829,2.5829,0,2.4826,2.4854,2.4922,2.5001,2.5057,2.5122,2.5188,2.522,2.5295,2.5347,2.5427,2.5479,2.5582,2.5661,2.5746,2.5794,2.5824,2.5832,2.5843,2.5827,2.5802,2.5815,2.5758,2.583,2.5829,2.5829,2.5829,2.5829,2.4845,2.4891,2.4968,2.5042,2.5098,2.5159,2.5209,2.5265,2.5332,2.542,2.5453,2.5534,2.561,2.5727,2.5776,2.584,2.5844,2.586,2.5864,2.5866,2.5864,2.5792,2.5856,2.5856,2.5856,2.5856,2.5856,0,2.4888,2.494,2.5007,2.5098,2.5156,2.5179,2.5254,2.5301,2.5371,2.5439,2.5505,2.5595,2.5672,2.5745,2.5825,2.5863,2.5878,2.5882,2.5879,2.589,2.5857,2.5839,2.5868,2.5868,2.5868,2.5867,2.5867,2.5867,2.4917,2.4995,2.5032,2.5138,2.519,2.527,2.531,2.5366,2.5421,2.552,2.5584,2.563,2.5701,2.5786,2.5858,2.5877,2.5905,2.5904,2.5927,2.5894,2.5892,2.589,2.5874,2.591,2.591,2.5955,2.5955,2.5956]}]]